Stündliche Wetter Abay

Heute, 24 Juni, Donnerstag

Zeit Temperatur Niederschläge Wind Luftdruck Luftfeuchtigkeit
00:00 +5°C° 0 mm 2 m/S 665 mmHg 84%
01:00 +5°C° 0.3 mm 2 m/S 665 mmHg 86%
02:00 +6°C° 0.3 mm 2 m/S 664 mmHg 87%
03:00 +6°C° 0.3 mm 2 m/S 663 mmHg 89%
04:00 +5°C° 1.2 mm 3 m/S 663 mmHg 92%
05:00 +4°C° 1.2 mm 3 m/S 663 mmHg 95%
06:00 +4°C° 1.2 mm 3 m/S 662 mmHg 98%
07:00 +4°C° 1 mm 3 m/S 662 mmHg 98%
08:00 +5°C° 1 mm 3 m/S 662 mmHg 98%
09:00 +6°C° 1 mm 2 m/S 662 mmHg 97%
10:00 +6°C° 1.6 mm 2 m/S 663 mmHg 97%
11:00 +6°C° 1.6 mm 2 m/S 663 mmHg 97%
12:00 +6°C° 1.6 mm 2 m/S 663 mmHg 97%
13:00 +6°C° 1.2 mm 2 m/S 663 mmHg 97%
14:00 +6°C° 1.2 mm 2 m/S 663 mmHg 97%
15:00 +6°C° 1.2 mm 2 m/S 663 mmHg 97%
16:00 +7°C° 0.7 mm 2 m/S 663 mmHg 96%
17:00 +7°C° 0.7 mm 2 m/S 663 mmHg 95%
18:00 +8°C° 0.7 mm 2 m/S 663 mmHg 93%
19:00 +8°C° 0.9 mm 2 m/S 663 mmHg 95%
20:00 +7°C° 0.9 mm 2 m/S 663 mmHg 96%
21:00 +8°C° 0.9 mm 1 m/S 663 mmHg 98%
22:00 +8°C° 0.4 mm 1 m/S 663 mmHg 98%
23:00 +8°C° 0.4 mm 1 m/S 663 mmHg 98%

Morgen, 25 Juni, Freitag

Zeit Temperatur Niederschläge Wind Luftdruck Luftfeuchtigkeit
00:00 +8°C° 0.4 mm 1 m/S 662 mmHg 98%
01:00 +8°C° 0.5 mm 1 m/S 662 mmHg 98%
02:00 +7°C° 0.5 mm 1 m/S 662 mmHg 98%
03:00 +7°C° 0.5 mm 1 m/S 662 mmHg 98%
04:00 +7°C° 0.1 mm 1 m/S 662 mmHg 98%
05:00 +7°C° 0.1 mm 1 m/S 663 mmHg 97%
06:00 +7°C° 0.1 mm 1 m/S 663 mmHg 97%
07:00 +8°C° 0.1 mm 1 m/S 663 mmHg 93%
08:00 +9°C° 0.1 mm 1 m/S 664 mmHg 89%
09:00 +8°C° 0.1 mm 2 m/S 664 mmHg 86%
10:00 +9°C° 0.3 mm 2 m/S 664 mmHg 86%
11:00 +9°C° 0.3 mm 2 m/S 665 mmHg 86%
12:00 +9°C° 0.3 mm 2 m/S 665 mmHg 86%
13:00 +9°C° 0.3 mm 2 m/S 665 mmHg 84%
14:00 +10°C° 0.3 mm 2 m/S 666 mmHg 82%
15:00 +10°C° 0.3 mm 2 m/S 666 mmHg 80%
16:00 +10°C° 0.3 mm 2 m/S 666 mmHg 80%
17:00 +10°C° 0.3 mm 2 m/S 666 mmHg 80%
18:00 +10°C° 0.3 mm 2 m/S 666 mmHg 80%
19:00 +10°C° 0.2 mm 1 m/S 666 mmHg 84%
20:00 +8°C° 0.2 mm 1 m/S 667 mmHg 88%
21:00 +7°C° 0.2 mm 1 m/S 667 mmHg 92%
22:00 +7°C° 0 mm 1 m/S 667 mmHg 93%
23:00 +6°C° 0 mm 1 m/S 667 mmHg 94%

übermorgen, 26 Juni, Samstag

Zeit Temperatur Niederschläge Wind Luftdruck Luftfeuchtigkeit
00:00 +6°C° 0 mm 1 m/S 667 mmHg 95%
01:00 +6°C° 0 mm 1 m/S 667 mmHg 95%
02:00 +6°C° 0 mm 1 m/S 666 mmHg 95%
03:00 +6°C° 0 mm 1 m/S 666 mmHg 95%
04:00 +6°C° 0.1 mm 1 m/S 666 mmHg 94%
05:00 +7°C° 0.1 mm 1 m/S 666 mmHg 94%
06:00 +6°C° 0.1 mm 0 m/S 666 mmHg 93%
07:00 +8°C° 0.7 mm 1 m/S 666 mmHg 94%
08:00 +8°C° 0.7 mm 1 m/S 666 mmHg 94%
09:00 +8°C° 0.7 mm 1 m/S 667 mmHg 95%
10:00 +8°C° 0.6 mm 1 m/S 667 mmHg 94%
11:00 +9°C° 0.6 mm 1 m/S 667 mmHg 93%
12:00 +9°C° 0.6 mm 1 m/S 667 mmHg 92%
13:00 +10°C° 0.3 mm 1 m/S 667 mmHg 86%
14:00 +11°C° 0.3 mm 1 m/S 667 mmHg 80%
15:00 +12°C° 0.3 mm 1 m/S 667 mmHg 74%
16:00 +12°C° 0.6 mm 1 m/S 667 mmHg 76%
17:00 +12°C° 0.6 mm 1 m/S 667 mmHg 78%
18:00 +12°C° 0.6 mm 1 m/S 667 mmHg 80%
19:00 +10°C° 0.3 mm 1 m/S 667 mmHg 84%
20:00 +8°C° 0.3 mm 1 m/S 667 mmHg 88%
21:00 +7°C° 0.3 mm 1 m/S 667 mmHg 93%
22:00 +6°C° 0 mm 1 m/S 668 mmHg 93%
23:00 +5°C° 0 mm 1 m/S 668 mmHg 93%

27 Juni, Sonntag

Zeit Temperatur Niederschläge Wind Luftdruck Luftfeuchtigkeit
00:00 +4°C° 0 mm 0 m/S 668 mmHg 93%
01:00 +3°C° 0 mm 0 m/S 668 mmHg 93%
02:00 +3°C° 0 mm 0 m/S 668 mmHg 93%
03:00 +3°C° 0 mm 0 m/S 668 mmHg 93%
04:00 +4°C° 0 mm 0 m/S 668 mmHg 92%
05:00 +5°C° 0 mm 0 m/S 669 mmHg 92%
06:00 +6°C° 0 mm 0 m/S 669 mmHg 91%
07:00 +8°C° 0 mm 0 m/S 669 mmHg 83%
08:00 +10°C° 0 mm 0 m/S 669 mmHg 75%
09:00 +12°C° 0 mm 0 m/S 669 mmHg 67%
10:00 +14°C° 0 mm 1 m/S 669 mmHg 61%
11:00 +15°C° 0 mm 1 m/S 669 mmHg 55%
12:00 +18°C° 0 mm 1 m/S 669 mmHg 48%
13:00 +18°C° 0 mm 1 m/S 669 mmHg 47%
14:00 +18°C° 0 mm 1 m/S 669 mmHg 46%
15:00 +19°C° 0 mm 1 m/S 669 mmHg 45%
16:00 +19°C° 0 mm 1 m/S 669 mmHg 48%
17:00 +18°C° 0 mm 1 m/S 669 mmHg 52%
18:00 +18°C° 0 mm 1 m/S 669 mmHg 55%
19:00 +14°C° 0 mm 1 m/S 669 mmHg 65%
20:00 +12°C° 0 mm 1 m/S 669 mmHg 75%
21:00 +10°C° 0 mm 1 m/S 669 mmHg 85%
22:00 +9°C° 0 mm 1 m/S 669 mmHg 86%
23:00 +9°C° 0 mm 1 m/S 668 mmHg 88%

28 Juni, Montag

Zeit Temperatur Niederschläge Wind Luftdruck Luftfeuchtigkeit
00:00 +8°C° 0 mm 1 m/S 668 mmHg 90%
01:00 +8°C° 0 mm 1 m/S 668 mmHg 91%
02:00 +7°C° 0 mm 1 m/S 668 mmHg 92%
03:00 +7°C° 0 mm 1 m/S 668 mmHg 93%
04:00 +8°C° 0 mm 1 m/S 668 mmHg 92%
05:00 +9°C° 0 mm 1 m/S 668 mmHg 90%
06:00 +10°C° 0 mm 1 m/S 668 mmHg 88%
07:00 +12°C° 0 mm 1 m/S 668 mmHg 77%
08:00 +14°C° 0 mm 1 m/S 668 mmHg 67%
09:00 +16°C° 0 mm 1 m/S 668 mmHg 56%
10:00 +17°C° 0 mm 2 m/S 668 mmHg 51%
11:00 +18°C° 0 mm 2 m/S 668 mmHg 47%
12:00 +20°C° 0 mm 2 m/S 668 mmHg 43%
13:00 +20°C° 0 mm 3 m/S 668 mmHg 43%
14:00 +20°C° 0 mm 3 m/S 668 mmHg 44%
15:00 +20°C° 0 mm 3 m/S 668 mmHg 44%
16:00 +18°C° 0 mm 2 m/S 668 mmHg 53%
17:00 +17°C° 0 mm 2 m/S 668 mmHg 62%
18:00 +16°C° 0 mm 2 m/S 668 mmHg 70%
19:00 +15°C° 0 mm 1 m/S 667 mmHg 73%
20:00 +14°C° 0 mm 1 m/S 667 mmHg 76%
21:00 +12°C° 0 mm 1 m/S 667 mmHg 78%
22:00 +12°C° 0 mm 1 m/S 667 mmHg 77%
23:00 +12°C° 0 mm 1 m/S 666 mmHg 76%

29 Juni, Dienstag

Zeit Temperatur Niederschläge Wind Luftdruck Luftfeuchtigkeit
00:00 +12°C° 0 mm 1 m/S 666 mmHg 75%
01:00 +12°C° 0 mm 1 m/S 666 mmHg 77%
02:00 +12°C° 0 mm 1 m/S 666 mmHg 79%
03:00 +11°C° 0 mm 1 m/S 666 mmHg 81%
04:00 +12°C° 0 mm 1 m/S 665 mmHg 80%
05:00 +12°C° 0 mm 1 m/S 665 mmHg 80%
06:00 +13°C° 0 mm 1 m/S 665 mmHg 79%
07:00 +13°C° 0.3 mm 1 m/S 665 mmHg 82%
08:00 +13°C° 0.3 mm 2 m/S 666 mmHg 86%
09:00 +13°C° 0.3 mm 2 m/S 666 mmHg 89%
10:00 +13°C° 0.6 mm 2 m/S 666 mmHg 90%
11:00 +14°C° 0.6 mm 2 m/S 666 mmHg 91%
12:00 +14°C° 0.6 mm 2 m/S 666 mmHg 91%
13:00 +14°C° 1.1 mm 2 m/S 666 mmHg 92%
14:00 +13°C° 1.1 mm 1 m/S 665 mmHg 93%
15:00 +13°C° 1.1 mm 1 m/S 665 mmHg 94%
16:00 +13°C° 1.1 mm 1 m/S 665 mmHg 95%
17:00 +13°C° 1.1 mm 1 m/S 665 mmHg 96%
18:00 +11°C° 1.1 mm 0 m/S 665 mmHg 97%
19:00 +11°C° 0.5 mm 0 m/S 665 mmHg 97%
20:00 +11°C° 0.5 mm 0 m/S 665 mmHg 97%
21:00 +10°C° 0.5 mm 0 m/S 665 mmHg 97%
22:00 +10°C° 0 mm 0 m/S 665 mmHg 97%
23:00 +10°C° 0 mm 0 m/S 665 mmHg 97%
Mehr zeigen

Wir brauchen deine Erlaubnis

Meteoprog und unser Service Anbieter werden persönliche Daten aufbewahren, so wie Cookies, Geräte Bezeichnung oder ähnliche Technologien von deinem Gerät und Prozess, so wie Persönliche Daten Inhalte und Werbungen, genauso wie social Media und den Verkehr zu analysieren.

  • Aufbewahrung und/oder Zugang zu deiner Geräte Informationen.

    Cookies, Geräte Bezeichnung oder andere Informationen, können aufbewahrt oder Zugang zu deinem Gerät erhalten, für den Grund, der oben angegeben wird.

  • Personalisierte Werbung und Inhalte, Messungen, Einblick in das Publikum und Produkt Entwicklung.

    Werbungen und Inhalte können personalisiert werden, basierend auf ein Profil. Mehr Daten können besser personalisierte Werbungen und Inhalte hinzufügen. Werbung und Inhalte können gezeigt und gemessen werden. Einblicke über das Publikum, welche die Werbung gesehen haben und den Inhalt, können abgeleitet werden. So wie Daten können genutzt werden, um es zu verbessern oder die Benutzer Erfahrung zu verbessern das System und die Software.

Wenn du “Ich stimme zu” klickst, erlaubst du uns, die Cookies zu benutzen die Geräte Bezeichnung, den Web oder ähnliche Technologien zu benutzen. Deine Settings, können in deinem Gerät bei deinem Browser geändert werden.

Für den bestimmten Zweck, berechtigten Interessen beruhen darauf, mehr als auf den Inhalt. Du kannst mehr darüber in unseren Privaten und Cookie Politik lesen.